EHI
5 4 3 4 4 4 5 6 6 6 6 6 6 6 7 8 9 8 8 9 11 11 8 7 6 6 6 6 5 5 6 7 7 5 4 3 3 3 3 3 3 3 3
6 4 4 4 5 5 5 6 6 6 6 6 6 6 7 7 7 7 7 8 10 10 9 7 6 6 5 4 4 4 5 6 7 6 4 3 3 3 3 3 3 3 3
6 6 5 6 7 7 6 6 6 6 6 6 6 6 6 6 6 6 7 7 8 8 8 7 7 6 4 3 3 3 4 6 8 7 4 3 3 3 3 3 3 3 3
8 8 7 7 7 8 8 8 8 8 7 6 5 5 5 6 6 6 6 6 7 7 7 8 8 7 5 3 3 3 4 5 7 6 5 3 3 3 3 3 3 3 3
8 9 9 9 8 8 9 9 9 9 8 7 6 6 6 6 6 6 6 6 6 6 7 8 10 9 6 5 4 4 4 4 5 6 5 4 4 3 3 3 3 3 2
7 8 10 10 9 9 9 9 9 9 8 8 7 6 6 7 7 7 7 6 6 6 7 8 9 8 7 8 7 6 5 4 5 5 6 6 6 5 4 3 2 1 1
6 8 9 10 10 11 11 11 10 9 9 8 8 7 7 8 8 8 8 7 6 7 8 8 8 8 9 10 10 9 8 6 6 6 6 7 7 5 4 3 2 0 0
6 7 8 9 10 12 13 13 11 10 9 9 9 9 9 8 8 8 9 8 7 7 8 8 10 12 12 11 11 10 9 9 8 7 7 6 5 4 4 3 2 1 1
7 6 6 8 10 12 13 13 12 11 10 10 10 10 9 8 7 7 8 8 8 8 8 9 11 14 14 12 11 8 7 7 7 6 5 4 2 1 2 2 2 2 2
7 6 6 7 10 11 12 12 12 12 11 10 10 10 10 9 8 7 7 8 9 9 9 9 10 11 12 12 9 6 4 3 3 4 4 3 2 1 1 1 1 1 1
6 6 7 9 12 12 12 12 12 12 11 11 11 11 11 10 9 9 8 8 9 10 10 10 9 9 9 9 8 5 2 1 1 2 3 3 3 1 0 0 0 1 1
7 7 10 13 15 15 16 16 14 12 11 11 12 12 12 12 11 10 10 9 9 9 9 9 8 6 6 7 6 4 2 0 0 1 2 2 3 2 1 1 0 0 0
8 10 14 18 18 18 19 19 16 12 12 12 12 13 13 13 12 11 10 9 8 7 7 7 5 4 5 6 6 4 2 1 0 0 0 1 2 3 3 2 1 1 0
10 13 17 19 20 20 21 20 15 12 12 12 12 14 14 13 12 11 10 9 8 7 6 6 5 4 5 6 5 4 3 1 0 0 0 0 1 2 3 3 2 1 1
17 18 19 20 21 22 22 20 15 13 13 13 13 13 12 12 12 10 9 9 9 7 7 6 6 5 5 5 4 4 4 2 0 0 0 0 0 1 1 2 2 1 0
25 25 23 23 25 25 23 19 16 14 13 12 12 11 10 9 9 9 8 8 8 7 6 6 5 5 5 4 4 5 5 3 1 0 0 0 0 0 0 1 1 0 0
31 29 27 26 28 27 25 20 16 15 12 9 8 8 7 6 6 6 6 6 7 6 5 3 3 3 4 3 3 4 5 4 3 1 0 0 0 0 0 0 0 0 0
33 31 28 28 29 29 27 23 19 17 12 7 5 4 4 5 5 5 6 6 6 5 3 1 1 1 2 1 1 2 3 3 3 1 0 0 0 0 0 0 0 0 0
34 31 29 28 27 26 24 23 21 18 13 8 5 4 4 4 5 7 7 6 6 5 2 1 0 1 1 0 0 0 1 3 2 0 0 0 0 0 0 0 0 0 0
30 29 28 26 22 19 19 20 19 18 15 9 6 4 5 5 5 6 7 6 6 5 3 1 0 0 0 0 0 0 1 2 2 1 2 1 0 0 0 0 0 0 0
21 22 21 20 17 14 13 15 17 18 16 12 8 6 5 4 3 2 3 4 5 4 4 2 1 0 0 0 0 0 0 1 2 3 4 3 2 1 1 0 1 1 0
14 15 16 16 15 12 10 9 12 16 16 14 12 9 6 3 2 1 1 1 2 3 4 4 2 1 0 0 0 0 0 1 2 3 3 3 3 2 1 1 2 2 1
13 14 14 14 14 12 8 5 7 12 14 13 13 10 6 3 3 3 2 0 1 1 3 4 3 1 0 0 0 0 1 1 1 1 1 1 2 2 1 1 3 2 1
15 15 14 14 15 12 7 3 4 9 13 12 11 9 7 4 4 4 3 2 2 2 2 1 1 0 0 0 1 1 1 1 1 0 0 0 1 1 2 2 3 2 1
17 17 17 17 17 14 8 2 3 8 12 12 11 9 7 5 3 2 3 3 4 4 2 0 0 0 0 0 0 0 0 0 0 0 1 1 1 1 2 3 3 3 2
20 20 19 20 20 17 8 2 2 8 13 13 12 9 6 4 3 2 2 4 5 5 3 1 0 0 0 0 0 0 0 0 0 1 2 2 1 2 3 3 3 3 3
Wind_Speed
3 3 2 2 2 3 3 3 3 4 4 3 2 3 2 2 2 2 4 7 5 4 4 4 4 3 3 4 4 4 5 5 6 6 6 7 7 7 7 7 8 8 8
2 2 3 2 2 2 2 3 4 4 3 3 3 3 2 2 3 3 3 6 6 5 3 3 3 3 3 3 3 3 4 4 4 5 5 6 7 7 7 7 7 7 7
3 3 2 3 3 3 4 3 4 3 3 4 3 3 2 2 2 2 2 2 4 6 5 3 3 2 3 3 3 3 3 4 4 5 5 6 6 6 6 6 7 7 7
3 3 3 3 3 3 3 3 3 3 3 3 2 2 2 2 2 2 2 2 1 2 5 5 3 2 2 3 3 3 3 4 4 4 5 6 6 6 7 7 6 7 7
3 3 2 3 4 3 3 3 3 3 3 3 3 2 2 2 2 2 2 2 1 1 2 6 5 2 2 2 3 3 3 3 3 4 5 6 6 7 7 7 7 7 7
3 2 3 4 4 3 3 3 3 2 2 2 2 3 2 2 2 2 2 3 2 2 2 2 3 4 4 2 2 3 3 3 3 4 4 5 6 6 7 7 7 7 7
3 2 2 4 3 3 3 4 4 4 3 3 3 3 2 2 2 2 1 2 2 2 2 1 2 1 3 6 4 3 3 4 4 4 4 4 5 6 6 7 7 7 7
2 3 3 3 3 3 4 4 4 3 3 3 2 2 2 3 2 2 2 2 2 2 2 3 2 2 3 2 4 5 4 4 4 4 4 4 4 5 6 6 7 8 8
2 2 3 2 3 3 4 5 5 5 3 3 2 2 2 1 2 2 2 2 1 1 2 2 2 2 3 2 2 4 4 3 3 3 3 3 3 4 5 6 7 7 7
3 3 3 3 3 2 3 4 4 3 4 3 2 2 2 1 1 2 3 2 2 2 2 2 1 2 2 2 1 1 3 3 3 3 2 2 2 3 3 4 5 6 6
3 3 3 3 3 3 3 3 3 4 3 3 2 2 2 2 3 2 2 2 2 2 2 2 1 1 1 1 1 2 4 3 3 2 2 2 2 2 3 4 5 5 5
3 3 3 3 4 3 3 3 4 5 3 3 3 3 3 3 3 3 2 2 1 1 1 1 1 1 1 1 0 3 3 3 3 2 2 2 1 2 2 3 4 5 5
2 3 3 3 3 3 3 3 4 4 4 4 4 4 3 3 2 2 2 2 2 1 2 2 2 1 1 1 1 3 3 3 3 2 2 1 1 1 1 2 2 2 3
2 2 3 3 3 3 3 3 4 4 3 4 4 4 4 3 3 3 3 3 3 3 3 2 2 2 1 1 1 2 2 4 3 2 2 2 2 1 1 1 1 1 1
2 3 3 3 3 3 3 4 3 3 3 4 4 5 4 3 3 3 3 3 3 3 3 3 2 2 1 1 1 1 1 4 3 3 2 2 2 2 2 1 1 1 1
2 3 3 3 3 3 3 4 3 3 3 3 2 3 3 3 2 3 3 3 4 4 3 1 1 1 1 1 2 2 2 5 5 4 3 3 3 2 2 2 1 1 2
4 4 4 4 3 3 3 3 3 3 4 3 3 3 4 3 3 3 3 3 3 3 3 2 1 2 2 3 2 3 3 3 3 6 4 3 3 3 2 2 2 2 2
4 4 4 4 4 3 3 3 4 3 4 4 4 3 4 3 3 4 3 3 3 3 4 3 2 2 3 3 2 4 3 2 2 6 6 4 4 3 3 3 3 3 3
4 4 4 4 3 3 3 3 3 3 3 3 3 4 4 4 4 3 4 4 3 3 3 4 3 2 3 2 3 3 3 2 3 5 7 7 6 5 4 4 3 3 3
4 4 3 3 3 3 3 3 3 3 3 3 3 3 4 5 4 4 4 4 4 4 4 4 3 3 3 2 3 3 3 3 3 2 2 3 6 8 7 6 5 4 3
4 4 3 3 3 3 2 2 3 4 3 3 3 3 3 1 2 3 4 3 3 4 4 4 3 3 2 2 3 4 3 3 3 3 2 3 4 4 6 8 7 5 4
4 4 4 4 4 2 4 1 3 3 3 3 3 3 3 4 3 2 1 2 3 4 4 3 3 3 3 4 3 4 3 4 3 2 3 3 3 3 3 3 5 6 6
4 4 4 4 3 2 5 3 3 4 4 3 3 3 4 2 3 3 4 5 4 3 4 5 4 4 4 4 4 5 4 5 4 2 3 4 3 3 3 3 8 8 7
4 4 4 4 4 3 5 4 4 5 4 4 4 4 4 3 2 2 3 3 3 3 4 5 4 4 4 3 5 6 5 5 5 4 4 4 3 3 2 2 8 9 8
4 4 4 4 4 3 5 5 5 5 4 4 4 4 4 3 2 1 3 4 3 3 3 2 3 3 3 4 5 5 4 4 4 3 3 4 3 2 2 2 5 9 8
4 4 4 4 4 4 5 5 5 5 4 4 4 4 3 2 3 2 5 5 5 4 3 3 4 5 6 6 7 7 5 5 4 3 2 3 3 3 3 2 2 4 5
Wind_Direction
148 145 141 150 151 139 147 151 152 139 133 132 135 124 115 103 105 113 112 113 121 129 140 149 157 165 168 173 181 186 196 206 209 208 210 213 211 212 207 202 202 202 203
149 156 154 146 139 141 135 148 145 137 130 118 116 115 127 125 121 138 133 131 133 136 138 141 152 163 173 180 188 194 200 198 198 205 208 211 212 213 209 205 204 204 205
157 158 146 151 144 143 146 146 139 142 142 137 133 137 139 134 130 133 142 148 145 143 143 148 156 170 184 188 191 194 197 194 201 198 200 203 204 205 205 207 206 205 205
162 166 158 149 145 152 153 147 147 144 139 140 135 136 136 138 143 151 155 159 156 147 145 145 151 162 187 197 198 199 204 202 199 196 200 204 205 207 208 207 209 210 208
167 171 151 139 161 161 162 162 133 148 143 140 141 144 149 138 149 159 146 150 151 170 161 143 153 156 186 212 209 207 205 196 198 204 207 209 211 210 209 208 212 210 208
158 165 154 154 164 153 150 139 137 141 138 144 139 119 140 156 170 158 177 164 170 178 176 160 178 172 176 203 223 219 217 213 215 218 218 216 215 212 208 209 212 211 211
158 168 156 146 164 151 157 158 153 151 156 156 149 144 155 161 156 159 186 186 171 175 166 182 242 243 178 183 205 230 237 231 227 222 220 219 218 216 213 214 213 213 216
175 171 166 165 160 156 163 168 174 176 170 183 197 187 179 168 167 164 170 186 194 187 187 198 210 240 271 221 159 195 227 240 238 225 219 216 220 217 216 217 216 218 221
180 174 167 170 175 188 175 184 193 199 190 194 226 254 235 172 146 152 181 188 196 227 226 203 210 220 244 263 234 176 197 218 229 227 212 207 213 213 217 219 221 220 220
185 183 180 180 200 199 177 201 193 207 214 204 192 232 285 319 237 167 180 179 197 219 242 250 223 207 230 244 221 106 159 190 212 219 207 203 194 193 199 205 215 217 216
193 197 191 189 198 202 196 208 195 217 220 227 219 208 196 206 236 231 205 196 198 200 205 217 232 232 197 243 252 108 134 165 186 198 199 205 198 194 204 213 218 220 219
193 195 203 196 206 206 200 208 211 213 232 244 248 237 222 221 221 218 221 223 215 184 199 216 217 216 231 233 208 102 125 150 165 172 176 179 182 190 197 215 230 229 224
196 183 198 204 209 204 207 216 219 229 224 228 238 244 240 240 236 230 230 228 227 200 207 213 209 211 220 239 146 132 135 152 160 165 167 165 158 161 194 216 228 231 223
206 174 195 206 211 206 209 212 228 221 216 227 238 245 246 239 233 228 235 231 229 222 214 209 187 195 197 208 102 213 156 150 162 167 169 171 167 162 156 195 208 213 192
203 183 191 198 211 213 217 220 223 223 220 230 230 225 235 231 231 228 231 239 249 247 230 208 209 165 202 175 191 223 203 132 159 170 175 182 186 179 162 156 164 177 165
206 193 197 196 201 206 211 224 218 211 223 228 239 246 244 238 230 230 231 239 254 268 270 219 226 196 220 227 170 230 213 164 181 180 184 193 195 187 177 166 157 152 151
198 193 194 197 198 204 212 220 231 210 222 225 229 222 231 246 246 239 230 235 242 253 255 245 233 195 212 247 222 238 224 222 170 168 182 194 199 195 185 181 176 161 150
203 196 194 194 199 196 203 215 224 218 222 227 229 229 229 222 231 250 245 243 242 245 247 243 233 219 225 226 234 255 245 231 222 155 176 191 195 194 191 186 179 174 168
202 197 190 191 194 196 203 213 220 223 225 230 229 226 227 224 234 240 250 248 242 235 236 234 234 220 234 225 234 247 246 255 247 167 176 184 186 186 188 187 180 172 169
193 189 186 186 185 193 201 202 208 216 225 235 238 235 230 231 235 238 239 243 250 249 239 241 230 222 219 215 240 250 242 231 252 239 208 193 184 192 191 187 182 175 174
193 183 180 180 187 198 199 202 208 206 212 223 228 236 239 260 340 292 283 261 251 254 247 246 246 243 231 231 246 252 256 249 238 247 241 223 198 205 192 189 186 181 180
188 183 187 189 205 206 103 114 251 210 211 221 225 230 218 200 179 194 276 307 296 266 268 263 257 257 247 247 255 259 261 256 254 221 251 250 233 231 222 198 162 173 183
189 196 198 202 213 160 132 167 240 240 222 223 225 234 244 185 201 199 185 201 220 239 255 268 269 276 265 255 256 253 253 263 273 270 257 258 243 245 237 168 158 175 184
197 203 208 212 217 174 155 185 216 232 233 226 228 232 246 236 230 229 232 230 233 223 231 240 261 270 277 265 246 250 249 245 255 246 239 261 248 248 240 189 162 177 186
202 206 207 208 212 186 168 186 216 227 225 229 233 234 236 227 120 196 244 244 243 229 207 239 284 283 302 278 260 252 242 244 258 250 227 255 257 255 248 222 171 174 183
206 208 206 210 212 207 168 179 221 235 223 226 222 218 209 224 149 203 239 244 247 247 246 222 230 232 238 228 222 239 251 247 256 253 202 237 254 255 245 225 206 182 189